Track ZHANGHENG-1 now! 10-day predictions ZHANGHENG-1 is classified as:
1 43194U 18015C 23080.37037208 .00018319 00000-0 84941-3 0 9990 2 43194 97.5588 216.2975 0003604 189.0924 193.2074 15.20113857284714